EXS9FE EGNM-LERS

Flight info

Callsign EXS9FE
Flight time 2h 11m
Altitude 23000
Route NELSA DCT MCT DCT LISTO P18 STAFA L8 HON/N0452F370 UN859 SOPIL DCT BALAN DCT EVPOK DCT NARAK DCT GAI DCT LOMRA DCT ROCAN DCT PUMAL N31 BERGA
Aircraft B738/M-SDE2E3FGHIRWXY/LB1

Departure

Time 2026-04-25 09:24
Airport Leeds Bradford Airport (EGNM)

Arrival

Time 2026-04-25 11:36
Airport Reus Airport (LERS)
Time Latitude Longitude Altitude Speed Heading
2026-04-25 09:10 53.86880 -1.65696 664 ft 0 kts 359°
2026-04-25 09:14 53.86873 -1.65696 664 ft 3 kts
2026-04-25 09:14 53.86852 -1.65699 662 ft 3 kts 13°
2026-04-25 09:14 53.86832 -1.65711 662 ft 3 kts 34°
2026-04-25 09:14 53.86819 -1.65733 663 ft 3 kts 73°
2026-04-25 09:15 53.86817 -1.65747 664 ft 1 kts 90°
2026-04-25 09:18 53.86817 -1.65743 664 ft 1 kts 90°
2026-04-25 09:18 53.86817 -1.65734 663 ft 1 kts 90°
2026-04-25 09:18 53.86817 -1.65710 664 ft 5 kts 90°
2026-04-25 09:19 53.86816 -1.65645 664 ft 6 kts 92°
2026-04-25 09:19 53.86814 -1.65578 664 ft 6 kts 89°
2026-04-25 09:19 53.86813 -1.65506 664 ft 7 kts 92°
2026-04-25 09:19 53.86799 -1.65432 664 ft 7 kts 136°
2026-04-25 09:20 53.86745 -1.65420 664 ft 10 kts 181°
2026-04-25 09:20 53.86668 -1.65425 665 ft 12 kts 182°
2026-04-25 09:20 53.86580 -1.65432 668 ft 13 kts 182°
2026-04-25 09:20 53.86493 -1.65441 670 ft 12 kts 183°
2026-04-25 09:21 53.86408 -1.65451 672 ft 13 kts 184°
2026-04-25 09:21 53.86320 -1.65459 675 ft 12 kts 183°
2026-04-25 09:21 53.86235 -1.65466 676 ft 12 kts 183°
2026-04-25 09:21 53.86163 -1.65404 677 ft 12 kts 137°
2026-04-25 09:22 53.86102 -1.65307 675 ft 14 kts 137°
2026-04-25 09:22 53.86009 -1.65165 668 ft 19 kts 138°
2026-04-25 09:22 53.85932 -1.65039 663 ft 11 kts 125°
2026-04-25 09:22 53.85898 -1.64919 658 ft 8 kts 137°
2026-04-25 09:23 53.85863 -1.64933 659 ft 5 kts 229°
2026-04-25 09:23 53.85875 -1.64985 659 ft 5 kts 329°
2026-04-25 09:23 53.85908 -1.65013 660 ft 5 kts 323°
2026-04-25 09:23 53.85944 -1.65068 664 ft 22 kts 317°
2026-04-25 09:24 53.86285 -1.65592 675 ft 110 kts 317°
2026-04-25 09:24 53.87042 -1.66751 811 ft 171 kts 318°
2026-04-25 09:24 53.87896 -1.68123 1984 ft 164 kts 315°
2026-04-25 09:24 53.88661 -1.69501 3163 ft 161 kts 313°
2026-04-25 09:25 53.89449 -1.70963 3818 ft 178 kts 312°
2026-04-25 09:25 53.90307 -1.72634 4414 ft 195 kts 304°
2026-04-25 09:25 53.90791 -1.74741 5204 ft 196 kts 276°
2026-04-25 09:25 53.90669 -1.77018 6051 ft 198 kts 249°
2026-04-25 09:26 53.89764 -1.78900 6431 ft 220 kts 219°
2026-04-25 09:26 53.88632 -1.80773 6867 ft 235 kts 231°
2026-04-25 09:26 53.87546 -1.82984 7340 ft 253 kts 231°
2026-04-25 09:26 53.86390 -1.85334 8004 ft 264 kts 231°
2026-04-25 09:27 53.85181 -1.87790 8605 ft 277 kts 231°
2026-04-25 09:27 53.84092 -1.90513 9350 ft 282 kts 249°
2026-04-25 09:27 53.83295 -1.93549 10235 ft 286 kts 234°
2026-04-25 09:27 53.82362 -1.95134 10775 ft 289 kts 219°
2026-04-25 09:28 53.80638 -1.96907 11587 ft 294 kts 206°
2026-04-25 09:28 53.78734 -1.98243 12366 ft 298 kts 202°
2026-04-25 09:28 53.76139 -1.99863 13461 ft 302 kts 201°
2026-04-25 09:28 53.74142 -2.01104 14090 ft 313 kts 201°
2026-04-25 09:29 53.72755 -2.01978 14186 ft 329 kts 202°
2026-04-25 09:29 53.70562 -2.03382 14578 ft 343 kts 202°
2026-04-25 09:29 53.68320 -2.04836 15264 ft 346 kts 202°
2026-04-25 09:29 53.66067 -2.06306 16048 ft 347 kts 202°
2026-04-25 09:30 53.63804 -2.07790 16778 ft 350 kts 201°
2026-04-25 09:30 53.61529 -2.09287 17458 ft 354 kts 201°
2026-04-25 09:30 53.59222 -2.10803 18141 ft 357 kts 201°
2026-04-25 09:30 53.56896 -2.12332 18778 ft 360 kts 201°
2026-04-25 09:31 53.54559 -2.13868 19383 ft 363 kts 201°
2026-04-25 09:31 53.52199 -2.15417 19999 ft 365 kts 201°
2026-04-25 09:31 53.49822 -2.16976 20585 ft 368 kts 202°
2026-04-25 09:31 53.47430 -2.18544 21161 ft 371 kts 202°
2026-04-25 09:32 53.45020 -2.20121 21741 ft 374 kts 202°
2026-04-25 09:32 53.42506 -2.21307 22279 ft 378 kts 188°
2026-04-25 09:32 53.41008 -2.21431 22595 ft 381 kts 178°
2026-04-25 09:32 53.38639 -2.20832 23090 ft 385 kts 166°
2026-04-25 09:33 53.36580 -2.19729 23520 ft 388 kts 163°
2026-04-25 09:33 53.34011 -2.18296 23982 ft 392 kts 163°
2026-04-25 09:33 53.31408 -2.16847 24420 ft 395 kts 163°
2026-04-25 09:33 53.28789 -2.15403 24902 ft 396 kts 163°
2026-04-25 09:34 53.26173 -2.13975 25361 ft 397 kts 163°
2026-04-25 09:34 53.23530 -2.12545 25792 ft 400 kts 164°
2026-04-25 09:34 53.20874 -2.11115 26224 ft 402 kts 164°
2026-04-25 09:34 53.18215 -2.09688 26797 ft 399 kts 164°
2026-04-25 09:35 53.15593 -2.08285 27433 ft 396 kts 164°
2026-04-25 09:35 53.13007 -2.06903 28059 ft 392 kts 164°
2026-04-25 09:35 53.10385 -2.05504 28625 ft 391 kts 164°
2026-04-25 09:35 53.07827 -2.04142 29132 ft 390 kts 164°
2026-04-25 09:36 53.05243 -2.02768 29669 ft 389 kts 164°
2026-04-25 09:36 53.02671 -2.01402 30232 ft 387 kts 164°
2026-04-25 09:36 53.00113 -2.00043 30695 ft 385 kts 164°
2026-04-25 09:36 52.97561 -1.98691 31099 ft 385 kts 165°
2026-04-25 09:37 52.94999 -1.97334 31501 ft 385 kts 165°
2026-04-25 09:37 52.92447 -1.95985 31924 ft 384 kts 165°
2026-04-25 09:37 52.89907 -1.94644 32345 ft 383 kts 165°
2026-04-25 09:37 52.87364 -1.93303 32733 ft 383 kts 165°
2026-04-25 09:38 52.85338 -1.92235 33040 ft 383 kts 165°
2026-04-25 09:38 52.82800 -1.90899 33446 ft 382 kts 165°
2026-04-25 09:38 52.81088 -1.90000 33653 ft 383 kts 165°
2026-04-25 09:39 52.75920 -1.87291 33816 ft 398 kts 165°
2026-04-25 09:39 52.73280 -1.85909 33953 ft 403 kts 165°
2026-04-25 09:39 52.70581 -1.84497 34166 ft 406 kts 165°
2026-04-25 09:40 52.68033 -1.83165 34438 ft 406 kts 165°
2026-04-25 09:40 52.65440 -1.81810 34747 ft 405 kts 165°
2026-04-25 09:40 52.62751 -1.80406 35056 ft 404 kts 165°
2026-04-25 09:40 52.60062 -1.79006 35297 ft 405 kts 165°
2026-04-25 09:41 52.57380 -1.77611 35537 ft 406 kts 165°
2026-04-25 09:41 52.54686 -1.76212 35832 ft 405 kts 165°
2026-04-25 09:41 52.52005 -1.74821 36105 ft 405 kts 165°
2026-04-25 09:41 52.49311 -1.73425 36344 ft 405 kts 165°
2026-04-25 09:42 52.46618 -1.72033 36576 ft 406 kts 165°
2026-04-25 09:42 52.43935 -1.70646 36825 ft 405 kts 165°
2026-04-25 09:42 52.41275 -1.69272 37068 ft 405 kts 165°
2026-04-25 09:42 52.38583 -1.67885 37223 ft 407 kts 165°
2026-04-25 09:43 52.33132 -1.65072 37219 ft 411 kts 165°
2026-04-25 09:43 52.27699 -1.62228 37202 ft 406 kts 165°
2026-04-25 09:44 52.22325 -1.59419 37223 ft 410 kts 165°
2026-04-25 09:44 52.16816 -1.56554 37224 ft 421 kts 165°
2026-04-25 09:45 52.11163 -1.53621 37226 ft 431 kts 165°
2026-04-25 09:45 52.05377 -1.50627 37224 ft 441 kts 165°
2026-04-25 09:46 51.99474 -1.47579 37238 ft 450 kts 165°
2026-04-25 09:46 51.93463 -1.44484 37242 ft 456 kts 165°
2026-04-25 09:47 51.87441 -1.41391 37232 ft 459 kts 165°
2026-04-25 09:47 51.81338 -1.38265 37237 ft 459 kts 165°
2026-04-25 09:48 51.75241 -1.35157 37235 ft 459 kts 165°
2026-04-25 09:48 51.69162 -1.32094 37231 ft 457 kts 165°
2026-04-25 09:49 51.63089 -1.29038 37210 ft 456 kts 165°
2026-04-25 09:49 51.57040 -1.25967 37208 ft 455 kts 165°
2026-04-25 09:50 51.51020 -1.22919 37213 ft 454 kts 165°
2026-04-25 09:50 51.45156 -1.19100 37226 ft 455 kts 156°
2026-04-25 09:51 51.39431 -1.14770 37215 ft 455 kts 157°
2026-04-25 09:51 51.33678 -1.10547 37206 ft 454 kts 158°
2026-04-25 09:52 51.27924 -1.06347 37208 ft 454 kts 158°
2026-04-25 09:52 51.22190 -1.02165 37206 ft 454 kts 158°
2026-04-25 09:53 51.16462 -0.98005 37207 ft 454 kts 158°
2026-04-25 09:53 51.10678 -0.93816 37206 ft 454 kts 158°
2026-04-25 09:54 51.04951 -0.89678 37209 ft 455 kts 158°
2026-04-25 09:54 50.99191 -0.85526 37227 ft 455 kts 158°
2026-04-25 09:55 50.93419 -0.81376 37207 ft 455 kts 158°
2026-04-25 09:55 50.87643 -0.77235 37222 ft 455 kts 158°
2026-04-25 09:56 50.82074 -0.72408 37241 ft 458 kts 149°
2026-04-25 09:56 50.76740 -0.66896 37239 ft 459 kts 149°
2026-04-25 09:57 50.71399 -0.61376 37234 ft 459 kts 149°
2026-04-25 09:57 50.66022 -0.55896 37230 ft 459 kts 150°
2026-04-25 09:58 50.60645 -0.50462 37222 ft 460 kts 150°
2026-04-25 09:58 50.55253 -0.45031 37220 ft 460 kts 150°
2026-04-25 09:59 50.49858 -0.39611 37212 ft 461 kts 150°
2026-04-25 09:59 50.44451 -0.34191 37212 ft 461 kts 150°
2026-04-25 10:00 50.39077 -0.28819 37215 ft 461 kts 150°
2026-04-25 10:00 50.33656 -0.23415 37210 ft 462 kts 150°
2026-04-25 10:01 50.28215 -0.18006 37209 ft 462 kts 150°
2026-04-25 10:01 50.22812 -0.12649 37213 ft 462 kts 150°
2026-04-25 10:02 50.17372 -0.07268 37207 ft 462 kts 150°
2026-04-25 10:02 50.11972 -0.01964 37208 ft 461 kts 153°
2026-04-25 10:03 50.06065 0.01751 37209 ft 454 kts 168°
2026-04-25 10:03 49.99934 0.04056 37207 ft 454 kts 169°
2026-04-25 10:04 49.93796 0.06373 37200 ft 454 kts 168°
2026-04-25 10:04 49.87684 0.08747 37193 ft 454 kts 168°
2026-04-25 10:05 49.81516 0.11159 37193 ft 454 kts 168°
2026-04-25 10:05 49.75401 0.13542 37184 ft 454 kts 168°
2026-04-25 10:06 49.69284 0.15918 37186 ft 454 kts 168°
2026-04-25 10:06 49.63187 0.18340 37176 ft 455 kts 167°
2026-04-25 10:07 49.57064 0.20838 37182 ft 455 kts 167°
2026-04-25 10:07 49.50936 0.23327 37181 ft 455 kts 167°
2026-04-25 10:08 49.44810 0.25797 37183 ft 455 kts 167°
2026-04-25 10:08 49.38688 0.28257 37181 ft 455 kts 167°
2026-04-25 10:09 49.32562 0.30714 37185 ft 454 kts 167°
2026-04-25 10:09 49.26446 0.33218 37177 ft 455 kts 167°
2026-04-25 10:10 49.20387 0.35784 37183 ft 455 kts 167°
2026-04-25 10:10 49.14288 0.38360 37168 ft 455 kts 167°
2026-04-25 10:11 49.08183 0.40918 37171 ft 455 kts 167°
2026-04-25 10:11 49.02078 0.43466 37159 ft 455 kts 167°
2026-04-25 10:12 48.95973 0.46007 37165 ft 455 kts 167°
2026-04-25 10:13 48.86802 0.49813 37160 ft 455 kts 167°
2026-04-25 10:13 48.80689 0.52343 37155 ft 455 kts 167°
2026-04-25 10:14 48.74571 0.54808 37157 ft 455 kts 167°
2026-04-25 10:14 48.69483 0.56781 37153 ft 455 kts 167°
2026-04-25 10:15 48.62358 0.59546 37153 ft 455 kts 167°
2026-04-25 10:15 48.56222 0.61936 37147 ft 455 kts 167°
2026-04-25 10:16 48.51131 0.63918 37159 ft 455 kts 167°
2026-04-25 10:16 48.45015 0.66395 37151 ft 455 kts 166°
2026-04-25 10:17 48.38892 0.68900 37148 ft 456 kts 166°
2026-04-25 10:17 48.32774 0.71382 37140 ft 456 kts 167°
2026-04-25 10:18 48.26647 0.73856 37137 ft 456 kts 167°
2026-04-25 10:18 48.20512 0.76301 37149 ft 456 kts 167°
2026-04-25 10:19 48.14365 0.78714 37130 ft 456 kts 167°
2026-04-25 10:19 48.08220 0.81122 37143 ft 457 kts 167°
2026-04-25 10:20 48.02161 0.83498 37142 ft 442 kts 167°
2026-04-25 10:20 47.96234 0.85816 37136 ft 438 kts 167°
2026-04-25 10:21 47.90389 0.88096 37134 ft 436 kts 167°
2026-04-25 10:21 47.84524 0.90379 37135 ft 435 kts 167°
2026-04-25 10:22 47.78658 0.92652 37147 ft 439 kts 167°
2026-04-25 10:22 47.72670 0.94964 37150 ft 449 kts 167°
2026-04-25 10:23 47.66564 0.97319 37146 ft 458 kts 167°
2026-04-25 10:23 47.60356 0.99709 37130 ft 462 kts 167°
2026-04-25 10:24 47.54119 1.02105 37136 ft 463 kts 167°
2026-04-25 10:24 47.47870 1.04500 37132 ft 464 kts 167°
2026-04-25 10:25 47.41562 1.06439 37123 ft 463 kts 177°
2026-04-25 10:25 47.35144 1.06381 37130 ft 461 kts 183°
2026-04-25 10:26 47.28768 1.06118 37140 ft 461 kts 182°
2026-04-25 10:26 47.22342 1.05933 37138 ft 461 kts 182°
2026-04-25 10:27 47.15922 1.05791 37131 ft 462 kts 182°
2026-04-25 10:27 47.09500 1.05653 37140 ft 461 kts 182°
2026-04-25 10:28 47.03071 1.05510 37137 ft 462 kts 182°
2026-04-25 10:28 46.96656 1.05282 37135 ft 461 kts 183°
2026-04-25 10:29 46.90225 1.04979 37135 ft 462 kts 183°
2026-04-25 10:29 46.83798 1.04686 37132 ft 462 kts 183°
2026-04-25 10:30 46.77373 1.04405 37134 ft 462 kts 183°
2026-04-25 10:30 46.70948 1.04129 37134 ft 462 kts 183°
2026-04-25 10:31 46.64562 1.03855 37128 ft 462 kts 183°
2026-04-25 10:31 46.58139 1.03580 37129 ft 462 kts 183°
2026-04-25 10:32 46.51715 1.03456 37125 ft 463 kts 177°
2026-04-25 10:32 46.45383 1.05180 37138 ft 464 kts 168°
2026-04-25 10:33 46.39103 1.07392 37146 ft 464 kts 167°
2026-04-25 10:33 46.32824 1.09563 37134 ft 464 kts 168°
2026-04-25 10:34 46.26530 1.11677 37136 ft 464 kts 168°
2026-04-25 10:34 46.20227 1.13769 37142 ft 464 kts 168°
2026-04-25 10:35 46.13969 1.15838 37151 ft 464 kts 168°
2026-04-25 10:35 46.07673 1.17918 37148 ft 464 kts 168°
2026-04-25 10:36 46.01373 1.19995 37150 ft 464 kts 168°
2026-04-25 10:36 45.95077 1.22067 37161 ft 464 kts 168°
2026-04-25 10:37 45.88771 1.24137 37150 ft 464 kts 168°
2026-04-25 10:37 45.82484 1.26196 37158 ft 464 kts 168°
2026-04-25 10:38 45.76210 1.28245 37153 ft 464 kts 168°
2026-04-25 10:38 45.69874 1.30311 37158 ft 464 kts 168°
2026-04-25 10:39 45.63617 1.32345 37157 ft 464 kts 168°
2026-04-25 10:39 45.57290 1.34399 37148 ft 464 kts 168°
2026-04-25 10:40 45.50985 1.36441 37158 ft 464 kts 168°
2026-04-25 10:40 45.44685 1.38475 37159 ft 464 kts 168°
2026-04-25 10:41 45.38379 1.40506 37173 ft 464 kts 168°
2026-04-25 10:41 45.32119 1.42519 37167 ft 464 kts 168°
2026-04-25 10:42 45.25860 1.44528 37176 ft 464 kts 168°
2026-04-25 10:42 45.19548 1.46550 37189 ft 464 kts 168°
2026-04-25 10:43 45.13242 1.48565 37179 ft 465 kts 168°
2026-04-25 10:43 45.06928 1.50578 37181 ft 465 kts 168°
2026-04-25 10:44 45.00617 1.52585 37185 ft 465 kts 168°
2026-04-25 10:44 44.94315 1.54585 37180 ft 465 kts 168°
2026-04-25 10:45 44.87995 1.56586 37181 ft 465 kts 168°
2026-04-25 10:45 44.81680 1.58581 37174 ft 465 kts 168°
2026-04-25 10:46 44.75398 1.60561 37176 ft 466 kts 169°
2026-04-25 10:46 44.69033 1.62564 37170 ft 466 kts 169°
2026-04-25 10:47 44.62716 1.64546 37167 ft 466 kts 168°
2026-04-25 10:47 44.56388 1.66527 37184 ft 466 kts 168°
2026-04-25 10:48 44.50057 1.68505 37185 ft 466 kts 168°
2026-04-25 10:48 44.43723 1.70480 37186 ft 466 kts 168°
2026-04-25 10:49 44.37391 1.72450 37180 ft 466 kts 168°
2026-04-25 10:49 44.31056 1.74417 37183 ft 467 kts 168°
2026-04-25 10:50 44.24717 1.76090 37187 ft 466 kts 172°
2026-04-25 10:50 44.18303 1.77428 37192 ft 466 kts 173°
2026-04-25 10:51 44.11876 1.78786 37191 ft 466 kts 172°
2026-04-25 10:51 44.05463 1.80190 37196 ft 466 kts 172°
2026-04-25 10:52 43.99055 1.81600 37191 ft 466 kts 172°
2026-04-25 10:52 43.92615 1.82803 37197 ft 466 kts 176°
2026-04-25 10:53 43.86160 1.83414 37196 ft 465 kts 178°
2026-04-25 10:53 43.79680 1.83959 37198 ft 466 kts 177°
2026-04-25 10:54 43.73270 1.84550 37197 ft 466 kts 177°
2026-04-25 10:54 43.66793 1.85177 37201 ft 466 kts 176°
2026-04-25 10:55 43.60318 1.85806 37200 ft 466 kts 176°
2026-04-25 10:55 43.53844 1.86432 37198 ft 466 kts 176°
2026-04-25 10:56 43.47366 1.87055 37196 ft 466 kts 176°
2026-04-25 10:56 43.40891 1.87677 37190 ft 466 kts 176°
2026-04-25 10:57 43.34461 1.88294 37186 ft 466 kts 176°
2026-04-25 10:57 43.27996 1.88915 37180 ft 466 kts 176°
2026-04-25 10:58 43.21526 1.89537 37183 ft 466 kts 176°
2026-04-25 10:58 43.15039 1.90160 37179 ft 466 kts 176°
2026-04-25 10:59 43.08555 1.90781 37181 ft 467 kts 176°
2026-04-25 10:59 43.02072 1.91400 37181 ft 467 kts 176°
2026-04-25 11:00 42.95617 1.92015 37179 ft 469 kts 176°
2026-04-25 11:00 42.89108 1.92633 37177 ft 469 kts 176°
2026-04-25 11:01 42.82595 1.93252 37169 ft 468 kts 176°
2026-04-25 11:01 42.76090 1.93869 37167 ft 468 kts 176°
2026-04-25 11:02 42.70700 1.94379 37166 ft 467 kts 176°
2026-04-25 11:02 42.64223 1.95189 37163 ft 467 kts 172°
2026-04-25 11:03 42.57804 1.96517 37158 ft 466 kts 171°
2026-04-25 11:03 42.51400 1.97870 37155 ft 465 kts 172°
2026-04-25 11:04 42.44990 1.99157 37147 ft 465 kts 172°
2026-04-25 11:04 42.38591 2.00424 37148 ft 465 kts 172°
2026-04-25 11:05 42.32165 2.01451 37139 ft 465 kts 176°
2026-04-25 11:05 42.25766 2.02152 37138 ft 464 kts 176°
2026-04-25 11:06 42.19328 2.02490 37109 ft 462 kts 192°
2026-04-25 11:06 42.16283 2.01207 37143 ft 459 kts 206°
2026-04-25 11:06 42.13603 1.98892 37147 ft 457 kts 222°
2026-04-25 11:07 42.08983 1.92999 37134 ft 457 kts 225°
2026-04-25 11:07 42.04422 1.87084 37084 ft 448 kts 224°
2026-04-25 11:07 42.02183 1.84248 36935 ft 435 kts 224°
2026-04-25 11:08 42.00005 1.81510 36828 ft 420 kts 224°
2026-04-25 11:08 41.97906 1.78879 36654 ft 405 kts 223°
2026-04-25 11:08 41.95870 1.76343 36374 ft 393 kts 221°
2026-04-25 11:08 41.93756 1.74087 35938 ft 386 kts 216°
2026-04-25 11:09 41.91560 1.72020 35385 ft 384 kts 215°
2026-04-25 11:09 41.89343 1.69999 34652 ft 386 kts 215°
2026-04-25 11:09 41.87118 1.67959 33852 ft 390 kts 215°
2026-04-25 11:09 41.84903 1.65897 33009 ft 392 kts 216°
2026-04-25 11:10 41.82668 1.63789 32225 ft 393 kts 216°
2026-04-25 11:10 41.81158 1.62355 31709 ft 394 kts 216°
2026-04-25 11:10 41.78196 1.59538 30641 ft 396 kts 216°
2026-04-25 11:10 41.75942 1.57395 29765 ft 398 kts 216°
2026-04-25 11:11 41.73636 1.55343 28764 ft 400 kts 207°
2026-04-25 11:11 41.70984 1.54185 27694 ft 403 kts 191°
2026-04-25 11:11 41.68213 1.53505 26663 ft 406 kts 190°
2026-04-25 11:11 41.65415 1.52859 25647 ft 413 kts 190°
2026-04-25 11:12 41.62588 1.52186 25014 ft 412 kts 191°
2026-04-25 11:12 41.59791 1.51490 24613 ft 407 kts 191°
2026-04-25 11:12 41.57055 1.50796 24226 ft 402 kts 191°
2026-04-25 11:12 41.54295 1.50285 24092 ft 390 kts 180°
2026-04-25 11:13 41.51648 1.50707 24028 ft 377 kts 170°
2026-04-25 11:13 41.49105 1.51330 23943 ft 366 kts 170°
2026-04-25 11:13 41.46648 1.51937 23842 ft 351 kts 170°
2026-04-25 11:13 41.44294 1.52500 23724 ft 335 kts 171°
2026-04-25 11:14 41.42080 1.53013 23581 ft 321 kts 171°
2026-04-25 11:14 41.39901 1.53507 23178 ft 316 kts 171°
2026-04-25 11:14 41.37734 1.53993 22607 ft 316 kts 171°
2026-04-25 11:14 41.35561 1.54479 22109 ft 314 kts 171°
2026-04-25 11:15 41.33409 1.54871 21651 ft 310 kts 181°
2026-04-25 11:15 41.31318 1.54309 21124 ft 307 kts 206°
2026-04-25 11:15 41.29618 1.52669 20667 ft 302 kts 231°
2026-04-25 11:15 41.28563 1.50299 20214 ft 297 kts 253°
2026-04-25 11:16 41.28833 1.45023 19310 ft 290 kts 299°
2026-04-25 11:16 41.30060 1.42936 18882 ft 287 kts 320°
2026-04-25 11:16 41.31738 1.41545 18454 ft 285 kts 340°
2026-04-25 11:17 41.33661 1.40926 18002 ft 283 kts 349°
2026-04-25 11:17 41.35590 1.40494 17568 ft 281 kts 350°
2026-04-25 11:17 41.37517 1.40065 17124 ft 279 kts 349°
2026-04-25 11:17 41.39422 1.39630 16719 ft 277 kts 349°
2026-04-25 11:18 41.41315 1.39210 16321 ft 274 kts 354°
2026-04-25 11:18 41.43208 1.39480 15858 ft 277 kts 17°
2026-04-25 11:18 41.44902 1.40686 15474 ft 278 kts 37°
2026-04-25 11:18 41.46187 1.42597 15057 ft 280 kts 57°
2026-04-25 11:19 41.46870 1.45020 14623 ft 281 kts 81°
2026-04-25 11:19 41.46802 1.47617 14201 ft 282 kts 104°
2026-04-25 11:19 41.45971 1.49971 13745 ft 283 kts 129°
2026-04-25 11:19 41.44553 1.51694 13380 ft 278 kts 147°
2026-04-25 11:20 41.42819 1.52781 12917 ft 275 kts 167°
2026-04-25 11:20 41.40946 1.53269 12522 ft 272 kts 172°
2026-04-25 11:20 41.39095 1.53678 12108 ft 267 kts 172°
2026-04-25 11:20 41.37261 1.54088 11521 ft 267 kts 172°
2026-04-25 11:21 41.35435 1.54504 10982 ft 265 kts 172°
2026-04-25 11:21 41.33617 1.54844 10443 ft 262 kts 182°
2026-04-25 11:21 41.31887 1.54265 9923 ft 255 kts 210°
2026-04-25 11:21 41.30571 1.52767 9333 ft 249 kts 232°
2026-04-25 11:22 41.29246 1.51318 8722 ft 252 kts 205°
2026-04-25 11:22 41.28177 1.50715 8438 ft 249 kts 204°
2026-04-25 11:22 41.26095 1.49458 7747 ft 247 kts 205°
2026-04-25 11:22 41.24556 1.48456 7241 ft 246 kts 210°
2026-04-25 11:23 41.23391 1.46845 6716 ft 246 kts 245°
2026-04-25 11:23 41.22874 1.44700 6218 ft 243 kts 252°
2026-04-25 11:23 41.22303 1.42573 5714 ft 245 kts 248°
2026-04-25 11:23 41.21681 1.40482 5294 ft 241 kts 247°
2026-04-25 11:24 41.21076 1.38399 4877 ft 241 kts 246°
2026-04-25 11:24 41.20465 1.36350 4330 ft 237 kts 246°
2026-04-25 11:24 41.19871 1.34327 3662 ft 233 kts 247°
2026-04-25 11:24 41.19278 1.32321 3005 ft 231 kts 246°
2026-04-25 11:25 41.18699 1.30342 2439 ft 230 kts 248°
2026-04-25 11:25 41.18147 1.28403 2366 ft 217 kts 248°
2026-04-25 11:25 41.17599 1.26534 2468 ft 221 kts 248°
2026-04-25 11:25 41.17327 1.24464 2932 ft 238 kts 278°
2026-04-25 11:26 41.17976 1.22468 4161 ft 237 kts 310°
2026-04-25 11:26 41.19307 1.21066 4802 ft 260 kts 336°
2026-04-25 11:26 41.21060 1.20553 4999 ft 259 kts 359°
2026-04-25 11:26 41.22876 1.20500 4976 ft 261 kts
2026-04-25 11:27 41.24670 1.20496 4990 ft 264 kts
2026-04-25 11:27 41.26518 1.20500 4978 ft 265 kts
2026-04-25 11:27 41.28287 1.21010 4971 ft 260 kts 29°
2026-04-25 11:27 41.29258 1.21960 5017 ft 255 kts 49°
2026-04-25 11:28 41.30528 1.24571 4982 ft 256 kts 61°
2026-04-25 11:28 41.31439 1.26648 4982 ft 258 kts 62°
2026-04-25 11:28 41.32328 1.28674 5010 ft 258 kts 62°
2026-04-25 11:28 41.33204 1.30767 4926 ft 257 kts 66°
2026-04-25 11:29 41.33663 1.32994 4850 ft 243 kts 92°
2026-04-25 11:29 41.33265 1.35076 4745 ft 228 kts 122°
2026-04-25 11:29 41.32153 1.36482 4548 ft 220 kts 154°
2026-04-25 11:29 41.30805 1.37291 4519 ft 207 kts 156°
2026-04-25 11:30 41.29524 1.38020 4422 ft 193 kts 156°
2026-04-25 11:30 41.28323 1.38690 4297 ft 182 kts 156°
2026-04-25 11:30 41.27184 1.39281 4158 ft 170 kts 156°
2026-04-25 11:30 41.26108 1.39827 4011 ft 164 kts 157°
2026-04-25 11:31 41.25042 1.40397 3894 ft 163 kts 156°
2026-04-25 11:31 41.23987 1.40923 3623 ft 161 kts 163°
2026-04-25 11:31 41.22862 1.41017 3161 ft 167 kts 193°
2026-04-25 11:31 41.22003 1.40017 3105 ft 179 kts 239°
2026-04-25 11:32 41.21383 1.38500 3039 ft 190 kts 240°
2026-04-25 11:32 41.20778 1.36968 2887 ft 181 kts 239°
2026-04-25 11:32 41.20226 1.35540 2787 ft 182 kts 244°
2026-04-25 11:32 41.19772 1.34007 2732 ft 168 kts 246°
2026-04-25 11:33 41.19364 1.32586 2529 ft 162 kts 247°
2026-04-25 11:33 41.18925 1.31207 2204 ft 163 kts 246°
2026-04-25 11:33 41.18527 1.29813 1965 ft 158 kts 249°
2026-04-25 11:33 41.18131 1.28461 1726 ft 155 kts 249°
2026-04-25 11:34 41.17760 1.27129 1539 ft 154 kts 248°
2026-04-25 11:34 41.17375 1.25804 1321 ft 153 kts 248°
2026-04-25 11:34 41.17011 1.24516 1058 ft 147 kts 249°
2026-04-25 11:34 41.16657 1.23270 1004 ft 145 kts 246°
2026-04-25 11:35 41.16287 1.21991 824 ft 149 kts 247°
2026-04-25 11:35 41.15916 1.20714 626 ft 147 kts 247°
2026-04-25 11:35 41.15546 1.19457 465 ft 148 kts 247°
2026-04-25 11:35 41.15174 1.18179 266 ft 148 kts 248°
2026-04-25 11:36 41.14838 1.17055 238 ft 103 kts 248°
2026-04-25 11:36 41.14660 1.16455 238 ft 47 kts 248°
2026-04-25 11:36 41.14568 1.16144 238 ft 22 kts 248°
2026-04-25 11:36 41.14540 1.16043 237 ft 0 kts 249°
2026-04-25 11:37 41.14524 1.15983 237 ft 11 kts 254°
2026-04-25 11:37 41.14546 1.15899 237 ft 11 kts 329°
2026-04-25 11:37 41.14613 1.15864 238 ft 10 kts 340°
2026-04-25 11:37 41.14655 1.15842 238 ft 6 kts 336°
2026-04-25 11:38 41.14691 1.15822 238 ft 6 kts 339°
2026-04-25 11:38 41.14725 1.15805 238 ft 3 kts 339°
2026-04-25 11:38 41.14735 1.15800 238 ft 1 kts 339°